Showing default

GHGSAT-C7, 56209

Orbit data source: Space-Track

GHGSAT-C7, 56209 is a payload satellite owned by GHG (CA) in SSO that was launched on Sat, 15 Apr 2023 UTC via an FALCON 9 launch vehicle from the Air Force Western Test Range (AFWTR). Payload-class satellites include a variety of spacecraft equipped with specific instruments for various scientific and technological missions. These include communications satellites like Starlink; space stations such as the ISS; scientific satellites like the Hubble; Earth observation satellites from companies like Planet Labs, Umbra, and HawkEye 360; GPS; miniature CubeSats for education and research; and military/defense satellites.

Loading next visibility...
Identifier
56209, 2023-054AH
Orbit
SSO
Country
Flag of CACA
Related business
Manufacturer
UTIAS-SFL
Mission
Operational Commercial Earth Obs Sci
Bus & Motor
NEMO-V1, Unknown motor
Mass
15 kg wet, 15 kg dry
Launch date (UTC)
2023-04-15 (3 years ago)
Launch vehicle
FALCON 9
Launch site
Air Force Western Test Range (AFWTR)
Object type
Payload
Rocket body
Debris
Shape & HBR
Box, 1.0 m
Radar Cross Section
0.100 m², Medium (>0.1 m² and < 1m²)

Expand to show TLE details & history
Last TLE update: 14 hours ago

TLE from 14 hours ago
0 GHGSAT-C7
1 56209U 23054AH  25310.26292833  .00015789  00000-0  34587-3 0  9992
2 56209  97.3132 211.4852 0010463 119.0513 241.1785 15.44132322143920
Epoch: 2025-11-06T06:18Z
TLE epoch observation values (Epoch: 2025-11-06T06:18:37.007Z)
Latitude
-0.00002°
Longitude
71.10725°
Altitude
440.497 km
Speed
7.646 km/s
True Right ascension
14h 05m 56s
True Declination
0° 00' 00"
Sunlit
Object was in daylight at epoch
Visualization orbit readout
Latitude
Unknown
Longitude
Unknown
Altitude
Unknown
Speed
Unknown
Apparent Right ascension
Unknown
Apparent Declination
Unknown
Sunlit
N/A
Visualization observer readout
Local Sidereal Time
16:16:57
Azimuth
Unknown
Elevation
Unknown
Doppler factor
Unknown
Orbital elements
Apogee altitude
437.983 km
Perigee altitude
423.734 km
Semi-major axis
6,808.996 km
Eccentricity
0.00105
Inclination
97.3132°
RAAN
211.4852°
Arg. of periapsis
119.0513°
True anomaly
241.07352°
Mean anomaly
241.1785°
Eccentric anomaly
241.126°
Mean motion
3.86295 °/min
Orbital period
93.19 mins
BSTAR
0.00034587
Loading maneuver chart data...
Computing Atmospheric mass density...
Loading historical data...
Loading historical data...
Loading historical data...
Loading historical data...
Loading historical data...
Loading historical data...
Loading historical data...

Documentation

Showing up to 5 results
|